Lapse_Rate
2.3 2.4 2.6 2.7 2.5 2.3 2.3 2.4 2.3 2.2 2.3 2.2 2.1 1.9 1.7 1.5 1.3 1.1 1.1 1.0 0.9 1.1 1.6 2.3 2.9 3.4 3.9 5.5 4.8 4.1 4.8 4.2 4.7 4.5 4.7 6.0 6.0 6.1 6.5 6.4 6.2 6.5 6.5 6.2 5.7 5.6 5.4
3.0 3.1 3.2 3.2 3.2 3.1 3.0 2.5 2.2 2.1 2.3 2.4 2.3 1.8 1.4 1.2 1.1 0.9 0.6 0.3 0.3 0.4 0.6 1.3 2.5 3.6 4.7 6.3 4.8 5.2 4.3 4.5 4.1 4.6 5.4 5.8 5.5 5.6 5.5 6.4 6.5 6.3 6.4 6.2 5.8 6.0 6.4
3.5 3.3 3.3 3.4 3.1 3.1 3.1 2.9 2.5 2.1 2.2 2.4 2.3 1.8 1.4 1.1 0.9 0.9 0.9 0.5 -0.0 -0.3 0.5 0.7 1.7 4.4 6.0 4.7 5.2 5.0 4.2 4.8 5.2 4.9 5.2 5.0 4.8 5.4 5.4 6.5 6.4 6.4 6.5 6.5 6.3 6.1 6.5
3.7 3.6 3.6 3.6 3.5 3.5 3.4 3.2 2.9 2.9 3.1 2.8 2.4 1.8 1.5 1.1 0.8 0.7 0.6 0.8 0.0 -0.3 0.5 0.7 2.2 5.5 4.6 4.8 4.8 4.8 4.3 5.2 5.3 6.1 5.4 5.2 5.1 6.1 5.6 6.1 6.5 6.5 6.5 6.5 6.5 6.4 6.2
3.9 3.9 3.9 4.2 4.4 4.2 4.2 3.7 3.1 2.8 2.8 2.7 2.4 1.9 1.4 1.1 0.9 0.9 0.8 1.3 0.6 1.4 1.3 2.2 4.0 5.5 5.5 5.0 5.6 5.2 4.8 4.7 4.4 6.0 6.1 6.8 6.4 5.8 6.4 6.5 6.5 6.5 6.5 6.5 6.5 6.4 6.5
4.0 3.9 3.8 3.7 3.8 3.6 3.5 3.2 3.1 3.1 3.0 3.0 2.6 2.2 1.6 1.4 1.4 1.1 0.8 1.7 1.8 2.3 3.1 4.4 6.3 6.4 5.5 6.1 5.4 4.7 4.9 4.8 5.4 6.7 6.4 6.2 5.0 6.5 6.5 6.5 6.5 6.5 6.5 6.5 6.5 6.5 6.5
4.0 4.0 3.9 3.8 3.8 3.8 3.7 3.4 3.0 3.2 3.1 3.1 2.9 2.7 2.2 1.7 1.7 1.4 1.3 1.8 2.9 4.3 3.4 5.5 5.0 5.3 5.7 5.1 5.1 5.4 5.7 5.2 6.1 6.3 6.5 6.3 6.5 6.5 6.5 6.5 6.5 6.5 6.5 6.5 6.5 6.5 6.5
3.3 3.2 3.1 3.3 3.3 3.3 3.2 3.1 3.2 3.2 3.1 3.1 3.1 3.0 3.1 2.6 1.9 2.0 2.7 4.5 5.6 4.8 5.2 2.3 5.6 6.5 5.7 5.5 5.6 6.0 5.2 5.9 6.1 6.5 6.5 6.5 6.5 6.5 6.5 6.5 6.5 6.5 6.5 6.5 6.5 6.5 6.5
2.6 2.8 2.7 2.8 3.0 3.1 3.1 3.0 2.9 3.1 3.1 2.7 2.2 2.4 2.9 2.8 1.8 3.5 3.9 4.7 5.0 5.6 5.9 5.5 6.9 6.8 6.0 5.6 6.3 5.6 5.0 6.0 6.5 6.5 6.5 6.5 6.5 6.5 6.5 6.5 6.5 6.5 6.5 6.5 6.5 6.5 6.5
2.6 2.6 2.5 2.4 2.7 2.8 2.8 3.0 3.1 3.0 2.8 2.8 2.2 2.2 2.3 2.4 4.3 2.8 3.8 4.6 5.0 5.0 6.5 6.5 6.4 6.4 5.7 6.1 6.4 5.4 4.3 5.5 6.5 6.5 6.5 6.5 6.5 6.5 6.5 6.5 6.5 6.5 6.5 6.5 6.5 6.5 6.5
2.3 2.2 2.2 2.6 2.9 3.1 2.9 3.0 3.1 3.2 3.1 2.7 2.4 2.3 2.8 2.9 2.9 3.4 5.2 4.9 4.8 3.8 6.5 6.5 6.5 5.8 6.2 6.2 5.8 5.6 4.9 5.6 6.5 6.5 6.5 6.5 6.5 6.5 6.5 6.5 6.5 6.5 6.5 6.5 6.5 6.5 6.5
2.5 2.7 2.8 3.2 3.4 3.6 3.7 3.6 3.5 3.5 3.2 2.9 2.8 2.6 3.2 3.7 2.7 4.0 5.3 4.5 3.7 6.5 6.5 6.5 6.1 6.5 6.5 6.3 6.3 5.4 6.1 5.7 6.1 6.5 6.5 6.5 6.4 6.5 6.5 6.5 6.5 6.5 6.5 6.5 6.5 6.5 6.5
3.1 3.4 3.5 3.7 4.1 3.9 3.9 3.9 4.3 4.1 3.8 3.4 2.7 2.5 2.8 3.9 4.2 5.8 4.6 3.8 6.5 6.5 6.5 6.5 6.5 6.5 6.5 6.5 6.5 6.5 6.5 6.5 6.5 6.5 6.5 6.5 6.5 6.5 6.5 6.5 6.5 6.5 6.5 6.5 6.5 6.5 6.5
3.6 3.8 4.1 4.4 4.8 4.7 4.6 4.5 4.9 5.3 4.4 4.2 3.4 2.6 2.4 4.4 5.4 5.7 4.2 6.3 6.5 6.5 6.5 6.5 6.5 6.5 6.5 6.5 6.5 6.5 6.5 6.5 6.5 6.5 6.5 6.5 6.5 6.5 6.5 6.5 6.5 6.5 6.5 6.5 6.5 6.5 6.5
3.8 4.1 4.4 5.0 5.5 5.7 7.0 7.4 7.8 7.5 6.6 4.9 3.7 1.6 2.1 3.7 6.1 4.3 5.7 6.5 6.5 6.5 6.5 6.5 6.5 6.5 6.5 6.5 6.5 6.5 6.5 6.5 6.5 6.5 6.5 6.5 6.5 6.5 6.5 6.5 6.5 6.5 6.5 6.5 6.5 6.5 6.5
3.6 4.5 6.1 8.1 8.2 8.7 8.7 8.6 8.9 8.8 8.1 6.6 4.3 2.5 3.6 5.3 5.4 4.4 6.4 6.5 6.5 6.3 6.5 6.5 6.5 6.5 6.5 6.5 6.5 6.5 6.5 6.5 6.5 6.5 6.4 6.5 6.5 6.5 6.5 6.5 6.5 6.5 6.5 6.5 6.5 6.5 6.5
5.0 5.8 6.5 6.8 7.7 8.0 8.5 9.1 8.9 9.2 8.6 8.0 4.1 4.1 3.7 5.3 3.7 4.1 6.5 6.5 6.5 5.9 5.9 6.5 6.5 6.5 6.5 6.5 6.5 6.5 6.5 6.5 6.5 6.5 6.4 6.5 6.5 6.5 6.5 6.5 6.5 6.5 6.5 6.5 6.5 6.5 6.5
4.7 5.4 6.2 5.6 5.3 5.7 7.8 8.1 8.1 8.7 8.9 7.6 5.6 6.4 4.5 4.5 5.5 4.8 6.5 6.5 5.8 6.4 5.7 6.5 6.5 6.5 6.5 6.5 6.5 6.5 6.5 6.5 6.7 6.6 6.5 6.5 6.5 6.5 6.5 6.5 6.5 6.5 6.5 6.5 6.5 6.5 6.5
5.1 5.2 5.4 5.0 4.9 5.8 7.8 7.7 7.9 8.0 8.1 7.0 7.3 5.8 5.0 6.0 6.5 6.5 6.3 6.5 6.4 6.5 6.5 6.5 6.5 6.5 6.5 6.5 6.5 6.5 6.5 6.4 6.4 6.5 6.5 6.5 6.5 6.5 6.5 6.5 6.5 6.5 6.5 6.5 6.5 6.5 6.5
5.2 5.0 5.0 5.1 5.4 7.0 7.6 7.5 7.3 8.0 8.1 5.9 5.9 6.5 3.9 4.8 4.2 6.5 6.5 6.5 6.5 6.2 6.4 6.4 6.5 6.5 6.5 6.5 6.5 6.5 6.5 6.5 6.3 6.4 6.9 6.7 6.5 6.5 6.5 6.5 6.5 6.5 6.5 6.5 6.5 6.5 6.5
5.5 5.2 5.2 5.4 5.8 8.8 8.0 7.6 7.8 7.7 8.1 5.6 4.9 5.8 5.9 6.5 6.0 6.5 6.4 6.5 6.5 6.5 6.4 6.4 6.5 6.5 6.5 6.5 6.5 6.5 6.5 6.5 6.4 6.5 6.5 6.5 6.5 6.5 6.5 6.5 6.5 6.5 6.5 6.5 6.5 6.5 6.5
5.6 5.1 5.4 5.8 8.2 9.1 8.6 7.9 7.7 7.8 7.8 5.5 5.7 6.1 6.3 6.7 6.3 6.4 6.5 6.5 6.5 6.5 6.5 6.5 6.5 6.5 6.5 6.5 6.5 6.5 6.5 6.5 6.5 6.5 6.5 6.5 6.5 6.5 6.5 6.5 6.5 6.5 6.5 6.5 6.5 6.5 6.5
5.6 5.6 6.8 9.0 9.3 9.3 9.5 8.6 8.2 8.1 7.7 6.1 5.5 5.7 7.0 6.7 6.2 6.5 6.5 6.5 6.5 6.5 6.4 6.4 6.5 6.5 6.5 6.5 6.5 6.5 6.4 6.5 6.4 6.5 6.5 6.5 6.5 6.5 6.5 6.5 6.5 6.5 6.5 6.5 6.5 6.5 6.5
5.8 6.2 7.5 9.3 9.0 9.0 9.1 8.5 8.4 8.3 8.0 6.9 6.0 6.3 6.8 6.5 6.5 6.5 6.5 6.5 6.5 6.5 6.5 6.3 6.1 6.3 6.2 5.5 5.4 6.1 6.5 6.3 6.6 6.5 6.6 6.5 6.5 6.5 6.5 6.5 6.5 6.5 6.5 6.5 6.5 6.5 6.5
6.4 7.3 9.2 9.2 9.3 8.9 9.2 8.4 7.9 8.6 8.0 6.6 5.7 6.5 6.7 6.5 6.6 6.5 6.4 6.4 6.6 5.9 6.1 6.3 6.3 5.1 3.9 4.9 6.5 6.5 6.5 6.5 6.5 6.5 6.5 6.5 6.5 6.5 6.5 6.5 6.5 6.5 6.5 6.5 6.5 6.5 6.5
7.8 8.3 8.7 9.1 9.3 9.0 8.8 8.5 7.7 7.7 7.8 7.0 5.9 6.9 6.6 6.0 6.1 6.3 6.2 6.1 6.5 6.5 6.5 4.2 3.4 3.1 4.0 6.4 6.5 6.5 6.5 6.5 6.5 6.5 6.5 6.5 6.5 6.5 6.5 6.5 6.5 6.5 6.5 6.5 6.5 6.5 6.5
8.3 8.4 8.6 9.1 9.3 8.8 9.0 8.9 8.2 7.4 7.9 7.6 6.3 7.3 6.7 6.5 5.2 6.3 6.5 6.6 5.7 5.8 6.5 3.4 2.5 5.6 4.2 6.5 6.5 6.5 6.5 6.5 6.5 6.5 6.5 6.5 6.5 6.5 6.5 6.5 6.5 6.5 6.4 6.2 6.5 6.5 6.6
8.2 8.4 8.6 9.2 9.2 8.4 8.7 9.3 8.8 7.9 7.9 7.7 6.7 6.9 6.5 6.2 5.5 6.2 7.1 6.7 6.4 6.4 6.5 5.7 6.4 4.3 5.9 6.5 6.5 6.5 6.5 6.5 6.5 6.5 6.5 6.5 6.5 6.5 6.5 6.5 6.5 6.0 6.3 6.5 6.5 6.2 6.0
8.4 8.5 8.9 9.3 8.5 8.3 8.4 8.7 9.1 8.4 8.0 8.4 6.8 6.5 7.4 6.0 5.6 5.5 5.9 5.9 6.1 5.8 6.8 5.8 6.0 5.7 6.1 6.5 6.5 6.5 6.5 6.5 6.5 6.5 6.5 6.5 6.5 6.5 6.5 6.5 6.1 5.0 5.1 4.1 4.2 4.7 5.1
Wind_Speed
19 20 21 21 21 20 20 22 23 23 23 22 23 24 24 25 25 24 21 17 17 17 14 13 13 12 5 2 6 3 7 6 3 4 4 2 2 3 4 2 4 3 1 2 3 3 3
18 18 19 19 20 21 22 21 21 22 23 24 25 26 26 26 26 25 22 20 21 18 15 12 10 10 0 4 4 6 7 2 4 2 2 1 2 3 5 1 3 2 1 3 4 4 3
18 19 20 21 22 23 24 24 23 23 23 25 26 26 27 28 28 29 23 20 19 18 15 12 8 2 3 10 3 2 6 2 2 2 1 1 1 0 3 2 1 1 4 4 6 6 4
19 20 20 20 20 20 21 22 23 24 25 26 27 27 29 31 33 34 33 25 18 10 9 6 5 2 6 3 1 3 5 2 3 2 1 2 0 3 2 1 1 1 1 3 1 9 4
17 17 18 21 23 23 24 23 24 25 26 27 28 29 29 30 31 33 33 29 16 7 2 4 2 3 7 3 2 1 2 2 5 3 2 3 1 2 2 4 3 3 4 6 4 9 5
20 22 23 23 24 25 26 27 27 28 28 29 30 31 30 30 32 35 35 29 3 2 3 3 3 2 2 2 1 1 1 1 1 0 1 1 2 2 1 3 6 6 5 6 6 5 4
22 23 24 25 25 26 27 27 27 28 29 31 31 31 32 32 32 33 16 5 6 3 6 7 5 3 3 2 3 2 1 2 3 2 4 3 3 8 11 9 2 1 4 7 2 2 6
22 23 24 24 25 26 27 27 28 27 27 27 28 29 31 33 33 29 6 4 1 2 8 7 7 0 3 2 2 2 4 2 4 4 5 4 8 4 2 2 3 3 4 6 1 1 2
23 24 24 25 26 26 27 27 28 29 30 29 28 29 31 33 37 4 3 2 1 0 3 6 2 2 2 3 2 4 2 2 5 4 7 7 1 5 2 2 3 3 5 3 4 4 5
22 23 25 26 27 27 27 28 29 29 29 30 31 30 30 35 4 5 1 1 2 2 3 4 1 1 2 0 2 2 2 0 2 4 2 6 1 3 2 5 6 3 2 1 1 4 4
23 23 25 25 26 26 27 29 30 31 31 30 31 32 28 26 5 4 3 4 2 2 6 0 2 0 1 3 1 1 1 2 3 3 4 5 6 4 5 4 3 5 2 3 3 1 4
23 24 24 25 27 28 29 29 29 29 30 32 33 32 32 5 3 4 6 5 2 4 8 2 3 1 1 3 3 3 1 1 0 2 3 3 1 3 4 3 2 5 1 1 2 2 3
22 24 25 26 27 27 28 29 30 30 30 32 33 36 25 7 4 2 4 3 3 3 5 0 1 3 4 4 4 5 3 2 4 2 4 1 3 1 3 4 2 2 3 2 3 2 6
22 23 25 25 26 28 29 29 30 32 31 33 36 37 10 10 10 2 2 2 5 5 7 3 1 4 6 2 2 3 2 4 7 4 1 5 7 6 4 4 5 6 5 4 6 4 4
22 23 24 25 25 26 28 30 30 31 32 36 31 4 5 4 3 3 1 2 6 5 2 7 7 3 3 2 3 4 6 5 4 8 7 3 4 2 2 2 1 4 5 0 1 2 2
21 21 22 24 25 26 28 29 29 30 31 37 7 4 3 3 2 3 1 5 5 5 5 4 2 5 5 6 4 3 2 3 1 7 6 1 6 1 1 2 1 3 2 2 1 3 6
20 21 21 22 23 24 27 28 29 30 32 27 3 4 3 2 3 3 4 7 6 4 6 5 2 5 4 5 6 7 3 6 10 5 8 7 1 1 2 5 4 2 2 3 1 1 3
20 21 22 23 24 26 24 24 27 28 31 11 4 3 2 2 2 2 3 4 6 5 5 4 1 2 2 2 4 5 5 2 3 7 3 0 3 4 8 2 2 4 4 4 1 3 4
21 23 23 25 27 27 27 23 23 26 27 6 6 4 3 3 2 2 5 6 3 4 4 2 2 2 2 3 5 3 4 7 5 2 4 3 2 4 2 1 3 2 5 7 7 1 6
20 22 23 25 27 27 26 25 21 22 23 6 4 4 4 2 2 4 5 5 6 7 4 1 2 3 2 4 7 5 4 1 4 5 7 4 3 5 8 10 5 5 7 7 10 4 7
20 22 23 25 27 26 26 22 23 20 18 3 2 3 4 4 6 9 7 5 13 9 2 2 4 5 6 6 3 6 7 3 2 8 6 5 5 6 14 14 10 14 15 16 15 20 11
20 22 23 24 25 26 26 23 21 20 15 1 2 3 4 8 9 6 5 3 12 10 5 6 4 6 11 11 7 14 16 7 4 3 4 3 4 3 5 13 13 13 15 17 16 20 20
22 23 24 24 24 25 25 23 20 20 10 1 2 3 3 4 3 6 6 4 6 16 9 3 8 12 7 9 4 11 9 8 8 6 10 5 4 3 7 3 3 6 9 9 4 5 7
22 24 24 25 23 23 25 25 23 20 14 3 3 2 3 7 6 6 7 15 16 13 10 9 8 4 2 6 8 11 11 13 13 12 9 7 4 2 3 3 3 7 2 3 5 6 6
23 24 25 26 25 22 25 25 24 20 20 3 2 2 2 5 9 12 7 9 10 8 8 12 15 2 4 4 3 6 3 3 6 2 6 10 3 2 3 3 7 8 1 1 2 3 2
25 24 24 25 27 22 22 23 23 17 17 2 2 3 2 3 5 4 10 12 13 13 8 4 3 2 1 0 0 3 3 6 4 2 6 2 3 2 1 2 5 5 2 1 2 4 4
25 24 25 26 27 24 22 20 20 19 17 4 3 3 2 4 6 3 4 7 3 5 6 5 3 2 2 1 3 3 4 3 2 3 3 1 1 5 4 4 7 3 4 3 1 2 4
25 25 25 27 26 23 22 20 16 17 19 7 3 8 3 3 7 8 5 5 7 6 3 3 6 3 0 2 2 4 2 4 2 2 5 6 5 3 3 4 8 5 4 4 1 2 3
27 25 25 27 24 23 21 19 20 16 18 15 3 4 5 4 6 8 17 17 13 20 9 4 4 2 3 3 2 2 3 1 3 11 4 4 7 4 8 6 2 5 2 4 4 4 3
Wind_Direction
34 26 22 19 19 19 17 12 8 6 5 3 359 355 352 349 346 341 331 322 312 306 300 303 315 333 349 265 246 16 345 346 10 331 183 184 248 233 251 275 142 193 257 57 122 112 250
30 25 19 15 13 10 6 8 5 1 358 356 354 350 347 345 342 340 330 319 312 305 295 290 297 322 162 255 124 12 343 16 360 6 325 121 196 287 269 194 198 169 182 214 197 194 217
17 17 13 10 9 6 1 357 354 354 354 351 349 346 343 341 339 337 327 320 316 308 293 273 270 248 252 239 119 13 1 224 277 332 299 133 245 175 331 282 359 73 317 262 214 198 231
14 11 8 5 4 360 358 353 349 346 347 347 345 343 342 341 340 336 328 324 315 305 301 259 243 222 244 161 167 48 345 259 347 236 251 254 6 221 86 168 20 265 230 287 181 149 185
6 6 359 358 359 357 354 353 352 348 345 345 345 344 340 338 337 333 325 318 301 298 243 178 167 185 270 123 163 37 78 319 302 267 270 278 46 152 98 120 348 264 245 216 293 192 147
12 12 11 8 4 4 3 0 358 354 351 349 347 344 340 335 335 333 325 319 162 340 242 208 272 284 205 181 155 335 123 267 300 258 292 108 69 96 40 123 226 213 228 250 229 203 199
18 14 13 11 9 8 4 3 2 0 359 354 350 345 341 334 330 331 335 351 10 3 29 218 240 275 54 343 93 222 29 359 203 183 195 206 120 215 208 208 331 263 242 254 275 236 194
19 17 14 10 8 6 4 1 358 357 356 353 347 346 340 334 327 327 335 50 114 223 306 266 239 198 129 119 283 182 13 169 177 195 141 42 238 177 122 162 206 238 262 261 232 35 184
16 12 9 6 3 0 359 359 357 354 352 350 349 348 342 334 323 16 82 79 304 303 266 294 158 188 168 148 250 211 320 172 204 215 194 180 205 125 161 215 234 247 218 266 258 308 233
14 10 6 3 1 359 357 355 354 353 351 348 342 341 340 336 5 337 41 271 257 133 336 266 284 264 129 131 259 117 44 268 229 224 212 228 56 163 166 232 162 240 164 190 304 28 253
12 10 7 3 360 356 354 352 352 349 345 343 340 333 336 325 284 317 306 320 248 71 337 88 177 327 77 240 75 185 355 30 229 200 130 246 163 172 198 217 195 226 172 178 149 134 6
10 7 6 3 2 358 356 353 350 348 345 339 332 327 329 319 264 258 320 320 47 43 252 187 141 196 270 191 225 137 155 60 86 286 230 259 315 195 191 102 70 135 98 349 33 140 236
7 4 3 1 359 356 354 351 347 345 342 336 329 323 318 278 244 270 355 38 25 168 316 317 337 167 239 231 226 183 175 185 206 246 240 145 218 154 148 110 32 143 122 294 314 330 237
4 2 360 359 357 354 350 349 347 345 339 331 326 316 286 251 239 32 53 75 199 239 263 41 28 228 217 200 238 171 291 284 223 197 277 235 277 171 185 218 178 181 193 190 245 225 269
0 357 354 352 354 352 348 348 346 345 344 330 325 287 304 319 109 75 91 222 225 227 334 341 330 281 251 131 244 217 219 228 213 169 195 259 244 80 74 7 116 186 202 209 42 195 14
353 351 351 352 352 352 348 347 345 345 343 335 318 304 277 304 36 54 129 242 251 302 4 357 271 264 282 350 304 300 326 345 72 40 335 329 289 189 146 48 125 174 320 95 22 250 253
343 346 347 351 352 352 350 346 346 350 347 342 328 339 260 71 65 62 222 230 279 50 24 355 317 302 300 319 284 270 255 30 5 14 18 15 178 19 71 205 182 107 265 287 4 239 247
342 345 347 351 351 350 344 344 346 348 350 354 319 315 273 57 20 222 207 239 329 343 28 2 310 344 333 340 270 266 258 264 203 154 140 218 213 262 228 60 67 147 187 181 187 247 247
340 345 347 353 349 343 343 337 348 348 352 334 313 260 310 98 236 254 299 305 315 317 63 334 323 23 96 270 300 279 253 218 210 119 147 177 227 302 251 19 21 209 201 200 180 94 220
338 342 346 351 349 344 342 344 343 346 350 353 312 317 321 23 261 324 344 315 333 9 319 275 254 225 236 237 222 276 262 248 163 152 160 138 237 223 263 266 250 253 218 220 205 223 238
333 341 344 349 347 342 342 342 346 340 345 23 311 279 330 304 332 327 331 311 306 309 232 247 223 236 249 263 257 229 251 253 243 214 165 178 233 214 244 266 291 268 267 259 222 228 232
327 339 341 344 341 340 340 338 337 335 338 85 274 334 360 295 296 311 316 251 284 292 317 295 227 307 296 271 229 279 286 243 253 68 155 197 258 236 246 250 248 263 264 259 250 249 237
327 335 336 335 335 336 333 331 329 328 336 252 304 304 279 286 282 291 269 295 313 325 300 325 312 307 289 287 286 278 248 255 243 257 190 199 220 207 268 4 332 296 243 246 228 219 214
324 329 327 329 328 327 326 327 316 314 311 215 243 229 258 282 274 251 290 296 291 286 285 290 299 253 293 305 279 271 260 267 262 248 191 189 190 197 275 354 222 240 175 191 219 248 265
317 319 320 320 320 318 322 326 320 309 306 247 197 211 253 296 324 300 281 293 307 288 280 281 281 233 327 308 318 327 306 267 250 201 242 236 161 211 235 209 301 302 57 72 34 284 10
313 311 312 311 313 311 317 324 326 315 316 264 210 216 232 284 234 257 299 288 286 289 296 275 300 304 13 139 206 232 251 248 289 172 20 82 91 150 209 225 246 238 191 136 121 284 352
304 306 306 306 308 308 309 316 325 319 314 281 242 234 215 250 263 196 231 277 302 285 282 281 292 349 69 241 223 217 245 252 287 330 201 37 322 219 227 251 278 216 152 110 147 293 345
301 301 300 303 305 304 298 307 309 317 306 301 224 252 258 240 261 242 271 281 290 279 269 326 305 343 114 231 272 249 220 245 9 213 186 179 195 206 208 210 278 141 111 176 163 159 268
295 295 296 299 303 297 294 295 304 304 298 304 248 223 259 246 255 261 261 257 250 252 263 208 239 194 234 221 249 260 288 265 170 281 157 253 198 199 203 213 145 182 153 172 174 167 246